When you browse on this site, cookies collect data to enhance your experience and personalize the content and advertising you see.
Visit our Privacy Policy to learn more. By continuing to use the site, you agree to this use of cookies and data.
  • En España
  • Lista de países
  • Para 7 días
  • Temperatura del agua
  • Mapa Satelital
  • El tiempo en el mapa
  • Informadores
  • user-avatar
    Iniciar sesión

    Tiempo cada hora Georgetown

    Hoy, 22 Abril, Lunes

    Tiempo Temperatura Precipitaciones Viento Presión Humedad
    00:00 +27°C° 0 mm 2 mps 759 mmHg 83%
    01:00 +27°C° 0 mm 2 mps 759 mmHg 84%
    02:00 +26°C° 0 mm 2 mps 759 mmHg 85%
    03:00 +26°C° 0 mm 2 mps 758 mmHg 86%
    04:00 +26°C° 0 mm 2 mps 758 mmHg 87%
    05:00 +26°C° 0 mm 2 mps 758 mmHg 87%
    06:00 +27°C° 0.1 mm 2 mps 758 mmHg 83%
    07:00 +28°C° 0.1 mm 2 mps 759 mmHg 79%
    08:00 +29°C° 0 mm 2 mps 759 mmHg 74%
    09:00 +30°C° 0.1 mm 2 mps 759 mmHg 71%
    10:00 +30°C° 0.1 mm 2 mps 759 mmHg 68%
    11:00 +31°C° 0.1 mm 3 mps 759 mmHg 66%
    12:00 +33°C° 0.1 mm 3 mps 758 mmHg 63%
    13:00 +33°C° 0.1 mm 3 mps 758 mmHg 61%
    14:00 +34°C° 0.1 mm 4 mps 757 mmHg 58%
    15:00 +33°C° 0 mm 4 mps 757 mmHg 62%
    16:00 +32°C° 0 mm 4 mps 756 mmHg 66%
    17:00 +30°C° 0 mm 4 mps 756 mmHg 70%
    18:00 +29°C° 0 mm 4 mps 756 mmHg 74%
    19:00 +28°C° 0 mm 4 mps 757 mmHg 79%
    20:00 +27°C° 0 mm 3 mps 757 mmHg 83%
    21:00 +27°C° 0 mm 3 mps 758 mmHg 84%
    22:00 +27°C° 0 mm 3 mps 758 mmHg 84%
    23:00 +27°C° 0 mm 3 mps 759 mmHg 85%

    Mañana, 23 Abril, Martes

    Tiempo Temperatura Precipitaciones Viento Presión Humedad
    00:00 +27°C° 0 mm 3 mps 758 mmHg 86%
    01:00 +27°C° 0 mm 3 mps 758 mmHg 87%
    02:00 +27°C° 0 mm 3 mps 758 mmHg 88%
    03:00 +27°C° 0 mm 3 mps 758 mmHg 88%
    04:00 +26°C° 0 mm 2 mps 758 mmHg 88%
    05:00 +26°C° 0 mm 2 mps 758 mmHg 89%
    06:00 +28°C° 0 mm 2 mps 758 mmHg 83%
    07:00 +29°C° 0 mm 2 mps 759 mmHg 78%
    08:00 +30°C° 0 mm 2 mps 759 mmHg 72%
    09:00 +31°C° 0.2 mm 3 mps 759 mmHg 69%
    10:00 +33°C° 0.2 mm 3 mps 759 mmHg 67%
    11:00 +33°C° 0.2 mm 3 mps 759 mmHg 64%
    12:00 +33°C° 0.7 mm 3 mps 758 mmHg 68%
    13:00 +31°C° 0.7 mm 3 mps 757 mmHg 71%
    14:00 +31°C° 0.7 mm 3 mps 757 mmHg 75%
    15:00 +30°C° 0.4 mm 3 mps 756 mmHg 78%
    16:00 +30°C° 0.4 mm 3 mps 756 mmHg 80%
    17:00 +29°C° 0.4 mm 3 mps 756 mmHg 82%
    18:00 +28°C° 0 mm 3 mps 756 mmHg 84%
    19:00 +28°C° 0 mm 3 mps 757 mmHg 86%
    20:00 +28°C° 0 mm 3 mps 758 mmHg 88%
    21:00 +28°C° 0 mm 3 mps 758 mmHg 88%
    22:00 +28°C° 0 mm 3 mps 758 mmHg 88%
    23:00 +27°C° 0 mm 3 mps 759 mmHg 88%

    Pasado mañana, 24 Abril, Miércoles

    Tiempo Temperatura Precipitaciones Viento Presión Humedad
    00:00 +27°C° 0.1 mm 3 mps 758 mmHg 89%
    01:00 +27°C° 0.1 mm 3 mps 758 mmHg 89%
    02:00 +27°C° 0.1 mm 3 mps 757 mmHg 90%
    03:00 +27°C° 2.1 mm 3 mps 757 mmHg 90%
    04:00 +27°C° 2.1 mm 3 mps 757 mmHg 91%
    05:00 +27°C° 2.1 mm 3 mps 757 mmHg 91%
    06:00 +27°C° 1.7 mm 3 mps 758 mmHg 90%
    07:00 +28°C° 1.7 mm 3 mps 759 mmHg 88%
    08:00 +28°C° 1.7 mm 3 mps 759 mmHg 87%
    09:00 +28°C° 2 mm 3 mps 760 mmHg 89%
    10:00 +27°C° 2 mm 3 mps 760 mmHg 91%
    11:00 +27°C° 2 mm 3 mps 760 mmHg 94%
    12:00 +27°C° 1 mm 3 mps 760 mmHg 93%
    13:00 +27°C° 1 mm 2 mps 759 mmHg 93%
    14:00 +27°C° 1 mm 2 mps 758 mmHg 93%
    15:00 +27°C° 0.3 mm 1 mps 758 mmHg 93%
    16:00 +27°C° 0.3 mm 1 mps 758 mmHg 93%
    17:00 +27°C° 0.3 mm 1 mps 758 mmHg 94%
    18:00 +25°C° 0.1 mm 0 mps 758 mmHg 95%
    19:00 +25°C° 0.1 mm 0 mps 758 mmHg 95%
    20:00 +24°C° 0.1 mm 0 mps 759 mmHg 96%
    21:00 +24°C° 0 mm 0 mps 759 mmHg 96%
    22:00 +24°C° 0 mm 0 mps 760 mmHg 96%
    23:00 +24°C° 0 mm 0 mps 760 mmHg 96%

    25 Abril, Jueves

    Tiempo Temperatura Precipitaciones Viento Presión Humedad
    00:00 +24°C° 0.2 mm 0 mps 759 mmHg 96%
    01:00 +26°C° 0.2 mm 1 mps 759 mmHg 97%
    02:00 +26°C° 0.2 mm 1 mps 758 mmHg 97%
    03:00 +26°C° 0.2 mm 1 mps 758 mmHg 97%
    04:00 +25°C° 0.2 mm 1 mps 758 mmHg 96%
    05:00 +25°C° 0.2 mm 1 mps 758 mmHg 96%
    06:00 +27°C° 0.2 mm 1 mps 759 mmHg 92%
    07:00 +28°C° 0.2 mm 1 mps 759 mmHg 88%
    08:00 +29°C° 0.2 mm 2 mps 760 mmHg 84%
    09:00 +29°C° 0.4 mm 2 mps 760 mmHg 81%
    10:00 +30°C° 0.4 mm 2 mps 760 mmHg 78%
    11:00 +31°C° 0.4 mm 3 mps 760 mmHg 76%
    12:00 +31°C° 0.6 mm 3 mps 759 mmHg 75%
    13:00 +31°C° 0.6 mm 3 mps 759 mmHg 74%
    14:00 +31°C° 0.6 mm 3 mps 758 mmHg 73%
    15:00 +30°C° 0.5 mm 3 mps 758 mmHg 77%
    16:00 +30°C° 0.5 mm 3 mps 758 mmHg 80%
    17:00 +29°C° 0.5 mm 3 mps 758 mmHg 84%
    18:00 +28°C° 0.2 mm 3 mps 758 mmHg 87%
    19:00 +28°C° 0.2 mm 4 mps 759 mmHg 89%
    20:00 +27°C° 0.2 mm 4 mps 759 mmHg 91%
    21:00 +27°C° 0 mm 4 mps 760 mmHg 91%
    22:00 +27°C° 0 mm 3 mps 760 mmHg 91%
    23:00 +27°C° 0 mm 3 mps 760 mmHg 91%

    26 Abril, Viernes

    Tiempo Temperatura Precipitaciones Viento Presión Humedad
    00:00 +27°C° 0 mm 3 mps 760 mmHg 91%
    01:00 +27°C° 0 mm 3 mps 759 mmHg 91%
    02:00 +27°C° 0 mm 3 mps 759 mmHg 91%
    03:00 +27°C° 0.1 mm 3 mps 759 mmHg 91%
    04:00 +27°C° 0.1 mm 3 mps 759 mmHg 91%
    05:00 +27°C° 0.1 mm 3 mps 759 mmHg 91%
    06:00 +27°C° 0.1 mm 3 mps 760 mmHg 87%
    07:00 +28°C° 0.1 mm 4 mps 760 mmHg 84%
    08:00 +29°C° 0.1 mm 4 mps 761 mmHg 80%
    09:00 +30°C° 0.1 mm 4 mps 761 mmHg 73%
    10:00 +32°C° 0.1 mm 4 mps 760 mmHg 67%
    11:00 +34°C° 0.1 mm 4 mps 760 mmHg 60%
    12:00 +34°C° 0.1 mm 4 mps 760 mmHg 60%
    13:00 +33°C° 0.1 mm 4 mps 759 mmHg 60%
    14:00 +33°C° 0.1 mm 4 mps 758 mmHg 60%
    15:00 +33°C° 0 mm 4 mps 758 mmHg 64%
    16:00 +32°C° 0 mm 4 mps 758 mmHg 68%
    17:00 +30°C° 0 mm 4 mps 758 mmHg 72%
    18:00 +29°C° 0 mm 4 mps 759 mmHg 76%
    19:00 +28°C° 0 mm 4 mps 759 mmHg 79%
    20:00 +27°C° 0 mm 4 mps 760 mmHg 82%
    21:00 +27°C° 0 mm 4 mps 760 mmHg 82%
    22:00 +27°C° 0 mm 4 mps 760 mmHg 83%
    23:00 +27°C° 0 mm 4 mps 760 mmHg 84%

    27 Abril, Sábado

    Tiempo Temperatura Precipitaciones Viento Presión Humedad
    00:00 +27°C° 0 mm 3 mps 760 mmHg 84%
    01:00 +27°C° 0 mm 3 mps 759 mmHg 84%
    02:00 +26°C° 0 mm 3 mps 759 mmHg 85%
    03:00 +27°C° 0.1 mm 3 mps 759 mmHg 85%
    04:00 +27°C° 0.1 mm 3 mps 759 mmHg 84%
    05:00 +27°C° 0.1 mm 3 mps 759 mmHg 84%
    06:00 +28°C° 0 mm 3 mps 760 mmHg 79%
    07:00 +29°C° 0 mm 4 mps 760 mmHg 75%
    08:00 +30°C° 0 mm 4 mps 761 mmHg 70%
    09:00 +32°C° 0.1 mm 4 mps 761 mmHg 66%
    10:00 +33°C° 0.1 mm 4 mps 761 mmHg 62%
    11:00 +34°C° 0.1 mm 4 mps 760 mmHg 57%
    12:00 +34°C° 0 mm 4 mps 760 mmHg 57%
    13:00 +34°C° 0 mm 4 mps 759 mmHg 57%
    14:00 +34°C° 0 mm 4 mps 758 mmHg 57%
    15:00 +33°C° 0 mm 4 mps 758 mmHg 61%
    16:00 +32°C° 0 mm 4 mps 758 mmHg 65%
    17:00 +30°C° 0 mm 4 mps 757 mmHg 69%
    18:00 +29°C° 0 mm 3 mps 758 mmHg 74%
    19:00 +28°C° 0 mm 3 mps 758 mmHg 78%
    20:00 +27°C° 0 mm 3 mps 759 mmHg 83%
    21:00 +27°C° 0 mm 3 mps 759 mmHg 83%
    22:00 +27°C° 0 mm 3 mps 759 mmHg 83%
    23:00 +27°C° 0 mm 3 mps 760 mmHg 83%
    Mostrar más